Regional Weather Roundup
Issued by NWS State College, PA

Home | Current Version | Previous Version | Graphics & Text | Print | Product List | Glossary On
Versions: 1 2 3 4 5 6 7 8 9 10 11 12 13 14 15 16 17 18 19 20 21 22 23 24 25 26 27 28 29 30 31 32 33 34 35 36 37 38 39 40 41 42 43 44 45 46 47 48 49 50
000
ASUS41 KCTP 270303
RWRCTP

REGIONAL WEATHER ROUNDUP
NATIONAL WEATHER SERVICE STATE COLLEGE PA
1100 PM EDT TUE AUG 26 2014

Note: "fair" indicates few or no clouds below 12,000 feet with no
significant weather and/or obstructions to visibility.

* = STATION THAT DOES NOT REPORT PRECIPITATION /E.G. RAIN...SNOW...ETC/
    THUNDER OR FOG.

PAZ002>004-007>009-013>016-020>023-029>032-270400-
WESTERN PENNSYLVANIA

CITY           SKY/WX    TMP DP  RH WIND       PRES   REMARKS
ERIE           MOCLDY    78  67  68 SW6       30.03R
MEADVILLE      MOCLDY    74  66  76 SW6       30.07F
FRANKLIN*      MOCLDY    72  64  78 S8        30.09F
NEW CASTLE     FAIR      73  68  84 CALM      30.07F
BEAVER COUNTY  NOT AVBL
BUTLER*        CLEAR     72  64  78 S3        30.11F
PITTSBURGH INT PTCLDY    72  65  78 S5        30.10F
PITTSBURGH     CLEAR     71  62  73 S7        30.10F
INDIANA*       MOCLDY    64  63  94 CALM      30.16F
LATROBE        CLEAR     66  64  94 CALM      30.12F
WASHINGTON CO* CLEAR     64  63  94 CALM      30.11F
$$

PAZ004>006-010>012-017>019-024>028-033>037-041-042-045-046-049>053-270400-
CENTRAL PENNSYLVANIA

CITY           SKY/WX    TMP DP  RH WIND       PRES   REMARKS
BRADFORD       MOCLDY    69  62  78 SW5       30.13F
DUBOIS         CLEAR     69  61  75 S5        30.12F
CLEARFIELD     CLEAR     64  61  90 CALM      30.13F
JOHNSTOWN      CLEAR     67  53  61 SW5       30.17F
ALTOONA        CLEAR     65  60  84 CALM      30.15F
STATE COLLEGE  PTCLDY    66  59  77 CALM      30.13F
WILLIAMSPORT   CLEAR     68  62  81 CALM      30.08S
SELINSGROVE    CLEAR     62  61  96 CALM      30.11S
FT INDIANTOWN  CLEAR     65  65 100 CALM      30.10F
CAPITAL CITY   LGT RAIN  68  62  81 CALM      30.10F
HARRISBURG     CLEAR     72  64  76 VRB3      30.09F
YORK           CLEAR     62  60  93 CALM      30.11F
$$

PAZ038>040-043-044-047-048-054-055-060>062-067>071-270400-
EASTERN PENNSYLVANIA

CITY           SKY/WX    TMP DP  RH WIND       PRES   REMARKS
SCRANTON       CLEAR     68  60  75 CALM      30.11S
MOUNT POCONO   CLEAR     61  58  90 W5        30.15F
ALLENTOWN      CLEAR     70  61  73 SW3       30.10F
QUAKERTOWN*    CLEAR     70  66  88 CALM      30.12F
READING        CLEAR     70  63  78 S5        30.09F
LANCASTER      CLEAR     68  61  78 SE5       30.10F
COATESVILLE    CLEAR     68  66  94 CALM      30.13F
POTTSTOWN      CLEAR     73  64  73 S5        30.12F
BLUE BELL      CLEAR     73  66  78 S5        30.11F
DOYLESTOWN     CLEAR     70  63  78 S5        30.11F
WILLOW GROVE   NOT AVBL
NORTH PHILA    CLEAR     74  62  66 VRB3      30.12F
PHILADELPHIA   PTCLDY    73  63  70 S9        30.12F
$$


USA.gov is the U.S. government's official web portal to all federal, state and local government web resources and services.